Location: Unspecified
(0.0000°N, 0.0000°E)
Time: 00:10:18
(UTC+00:00)

deb r/b Ablestar - Pass Details

Date: 20 December 2025
Orbit: 815 x 921 km, 66.9° (Epoch: 13 January)

Event Time Altitude Azimuth Distance (km) Brightness Sun altitude
Rises 19:14:13 0° 207° (SSW) 3,521 ? -17.5°
Reaches altitude 10° 19:16:44 10° 211° (SSW) 2,590 ? -18.0°
Maximum altitude 19:22:40 59° 289° (WNW) 1,045 ? -19.4°
Enters shadow 19:27:52 14° 6° (N) 2,331 ? -20.6°
